| time (UTC) | temp F | wind direction | speed MPH | gust MPH | rain 1hr in | rain 24hr in | rain mn in | humidity % | barometer mb |
| 20260901211556 | 48 | 276 | 4.0 | 14.0 | 0.00 | 0.00 | 0.00 | 66 | 1007.3 |
| 20260901210055 | 48 | 315 | 3.0 | 15.0 | 0.00 | 0.00 | 0.00 | 68 | 1007.5 |
| 20260901204608 | 47 | 266 | 5.0 | 13.0 | 0.00 | 0.00 | 0.00 | 68 | 1007.7 |
| 20260901203055 | 46 | 266 | 6.0 | 15.0 | 0.00 | 0.00 | 0.00 | 69 | 1007.9 |
| 20260901201552 | 45 | 258 | 6.0 | 13.0 | 0.00 | 0.00 | 0.00 | 71 | 1007.9 |
| 20260901200112 | 45 | 280 | 7.0 | 14.0 | 0.00 | 0.00 | 0.00 | 71 | 1008.0 |
| 20260901194604 | 44 | 277 | 6.0 | 15.0 | 0.00 | 0.00 | 0.00 | 72 | 1008.1 |
| 20260901193051 | 45 | 359 | 7.0 | 17.0 | 0.00 | 0.00 | 0.00 | 71 | 1008.2 |
| 20260901191622 | 45 | 288 | 6.0 | 19.0 | 0.00 | 0.00 | 0.00 | 73 | 1008.3 |
| 20260901190045 | 45 | 359 | 6.0 | 16.0 | 0.00 | 0.00 | 0.00 | 73 | 1008.3 |
| 20260901184543 | 45 | 331 | 6.0 | 15.0 | 0.00 | 0.00 | 0.00 | 74 | 1008.3 |
| 20260901183049 | 44 | 300 | 6.0 | 15.0 | 0.00 | 0.00 | 0.00 | 76 | 1008.2 |
| 20260901181542 | 43 | 270 | 6.0 | 16.0 | 0.00 | 0.00 | 0.00 | 77 | 1008.3 |
| 20260901180038 | 43 | 303 | 6.0 | 16.0 | 0.00 | 0.00 | 0.00 | 77 | 1008.3 |
| 20260901174535 | 43 | 310 | 2.0 | 9.0 | 0.00 | 0.00 | 0.00 | 80 | 1008.3 |
| 20260901173032 | 42 | 337 | 5.0 | 13.0 | 0.00 | 0.00 | 0.00 | 80 | 1008.3 |
| 20260901171535 | 42 | 347 | 6.0 | 13.0 | 0.00 | 0.00 | 0.00 | 81 | 1008.4 |
| 20260901170029 | 41 | 359 | 6.0 | 15.0 | 0.00 | 0.00 | 0.00 | 83 | 1008.5 |
| 20260901164529 | 41 | 318 | 6.0 | 16.0 | 0.00 | 0.00 | 0.00 | 83 | 1008.6 |
| 20260901163030 | 41 | 330 | 4.0 | 11.0 | 0.00 | 0.00 | 0.00 | 84 | 1008.5 |
| 20260901161529 | 40 | 359 | 2.0 | 9.0 | 0.00 | 0.00 | 0.00 | 85 | 1008.6 |
| 20260901160023 | 40 | 325 | 5.0 | 15.0 | 0.00 | 0.00 | 0.00 | 85 | 1008.6 |
| 20260901154522 | 40 | 278 | 5.0 | 11.0 | 0.00 | 0.01 | 0.00 | 86 | 1008.5 |
| 20260901153024 | 39 | 359 | 5.0 | 11.0 | 0.00 | 0.01 | 0.00 | 87 | 1008.4 |
| 20260901151534 | 39 | 320 | 6.0 | 12.0 | 0.00 | 0.01 | 0.00 | 87 | 1008.4 |
| 20260901150033 | 39 | 359 | 5.0 | 12.0 | 0.00 | 0.01 | 0.00 | 87 | 1008.4 |
| 20260901144527 | 39 | 296 | 3.0 | 10.0 | 0.00 | 0.02 | 0.00 | 87 | 1008.3 |
| 20260901143024 | 39 | 359 | 5.0 | 11.0 | 0.00 | 0.02 | 0.00 | 87 | 1008.3 |
| 20260901141520 | 39 | 25 | 4.0 | 9.0 | 0.00 | 0.02 | 0.00 | 87 | 1008.2 |
| 20260901140015 | 39 | 359 | 4.0 | 13.0 | 0.00 | 0.02 | 0.00 | 87 | 1008.2 |
| 20260901134514 | 39 | 347 | 4.0 | 10.0 | 0.00 | 0.02 | 0.00 | 87 | 1008.2 |
| 20260901133013 | 39 | 324 | 5.0 | 15.0 | 0.00 | 0.02 | 0.00 | 87 | 1008.2 |
| 20260901131515 | 39 | 359 | 7.0 | 16.0 | 0.00 | 0.02 | 0.00 | 88 | 1008.0 |
| 20260901130011 | 39 | 327 | 5.0 | 16.0 | 0.00 | 0.02 | 0.00 | 88 | 1007.9 |
| 20260901124510 | 39 | 326 | 5.0 | 11.0 | 0.00 | 0.02 | 0.00 | 88 | 1007.8 |
| 20260901123008 | 39 | 283 | 5.0 | 14.0 | 0.00 | 0.02 | 0.00 | 89 | 1007.7 |
| 20260901121510 | 39 | 283 | 5.0 | 15.0 | 0.00 | 0.02 | 0.00 | 89 | 1007.6 |
| 20260901120015 | 39 | 311 | 4.0 | 12.0 | 0.00 | 0.02 | 0.00 | 90 | 1007.6 |
| 20260901114506 | 39 | 8 | 7.0 | 16.0 | 0.00 | 0.02 | 0.00 | 90 | 1007.5 |
| 20260901113002 | 39 | 26 | 3.0 | 11.0 | 0.00 | 0.02 | 0.00 | 90 | 1007.4 |
| 20260901111502 | 39 | 316 | 5.0 | 14.0 | 0.00 | 0.02 | 0.00 | 90 | 1007.3 |
| 20260901110100 | 39 | 299 | 5.0 | 10.0 | 0.00 | 0.02 | 0.00 | 90 | 1007.2 |
| 20260901104603 | 39 | 326 | 5.0 | 17.0 | 0.00 | 0.02 | 0.00 | 89 | 1007.1 |
| 20260901103056 | 39 | 330 | 6.0 | 15.0 | 0.00 | 0.02 | 0.00 | 89 | 1006.9 |
| 20260901101605 | 39 | 309 | 4.0 | 14.0 | 0.00 | 0.02 | 0.00 | 89 | 1006.9 |
| 20260901100055 | 39 | 327 | 4.0 | 13.0 | 0.00 | 0.02 | 0.00 | 89 | 1006.8 |
| 20260901094554 | 39 | 359 | 6.0 | 16.0 | 0.00 | 0.02 | 0.00 | 89 | 1006.8 |
| 20260901093051 | 39 | 265 | 3.0 | 16.0 | 0.00 | 0.02 | 0.00 | 88 | 1006.7 |
| 20260901091556 | 38 | 331 | 5.0 | 13.0 | 0.00 | 0.02 | 0.00 | 88 | 1006.4 |
| 20260901090047 | 38 | 313 | 5.0 | 13.0 | 0.00 | 0.02 | 0.00 | 88 | 1006.3 |
| 20260901084550 | 38 | 322 | 6.0 | 16.0 | 0.00 | 0.02 | 0.00 | 88 | 1006.3 |
| 20260901083045 | 38 | 4 | 7.0 | 17.0 | 0.00 | 0.02 | 0.00 | 88 | 1006.2 |
| 20260901081544 | 38 | 354 | 6.0 | 15.0 | 0.00 | 0.02 | 0.00 | 88 | 1006.1 |
| 20260901080135 | 38 | 314 | 7.0 | 13.0 | 0.00 | 0.02 | 0.00 | 88 | 1006.0 |
| 20260901074539 | 38 | 308 | 6.0 | 15.0 | 0.00 | 0.02 | 0.02 | 87 | 1006.0 |
| 20260901073038 | 38 | 318 | 5.0 | 13.0 | 0.00 | 0.02 | 0.02 | 87 | 1005.9 |
| 20260901071540 | 38 | 337 | 8.0 | 14.0 | 0.00 | 0.02 | 0.02 | 87 | 1005.8 |
| 20260901070037 | 38 | 359 | 6.0 | 17.0 | 0.00 | 0.02 | 0.02 | 87 | 1005.6 |
| 20260901064536 | 38 | 332 | 7.0 | 17.0 | 0.00 | 0.02 | 0.02 | 87 | 1005.6 |
| 20260901063051 | 38 | 323 | 8.0 | 18.0 | 0.00 | 0.02 | 0.02 | 87 | 1005.5 |
| 20260901061532 | 38 | 300 | 6.0 | 13.0 | 0.00 | 0.02 | 0.02 | 87 | 1005.2 |
| 20260901060030 | 38 | 319 | 6.0 | 14.0 | 0.00 | 0.02 | 0.02 | 88 | 1005.1 |
| 20260901054534 | 38 | 359 | 6.0 | 14.0 | 0.00 | 0.02 | 0.02 | 87 | 1005.0 |
| 20260901053033 | 38 | 326 | 5.0 | 13.0 | 0.00 | 0.02 | 0.02 | 88 | 1004.9 |
| 20260901051528 | 37 | 317 | 4.0 | 15.0 | 0.00 | 0.02 | 0.02 | 87 | 1004.9 |
| 20260901050027 | 37 | 291 | 6.0 | 14.0 | 0.00 | 0.02 | 0.02 | 88 | 1004.8 |
| 20260901044526 | 37 | 311 | 8.0 | 18.0 | 0.00 | 0.02 | 0.02 | 88 | 1004.7 |
| 20260901043031 | 37 | 303 | 7.0 | 19.0 | 0.00 | 0.02 | 0.02 | 87 | 1004.3 |
| 20260901041521 | 37 | 318 | 6.0 | 19.0 | 0.00 | 0.02 | 0.02 | 87 | 1004.3 |
| 20260901040022 | 37 | 322 | 6.0 | 18.0 | 0.00 | 0.02 | 0.02 | 87 | 1004.2 |
| 20260901034522 | 37 | 359 | 7.0 | 18.0 | 0.00 | 0.02 | 0.02 | 88 | 1004.0 |
| 20260901033019 | 37 | 303 | 8.0 | 22.0 | 0.00 | 0.02 | 0.02 | 88 | 1003.8 |
| 20260901031514 | 37 | 310 | 8.0 | 23.0 | 0.00 | 0.02 | 0.02 | 88 | 1003.6 |
| 20260901030016 | 38 | 9 | 7.0 | 17.0 | 0.00 | 0.02 | 0.02 | 89 | 1003.5 |
| 20260901024511 | 38 | 320 | 8.0 | 21.0 | 0.00 | 0.02 | 0.02 | 89 | 1003.3 |
| 20260901023012 | 38 | 258 | 7.0 | 17.0 | 0.00 | 0.02 | 0.02 | 90 | 1003.1 |
| 20260901021508 | 37 | 359 | 6.0 | 22.0 | 0.00 | 0.02 | 0.02 | 91 | 1002.9 |
| 20260901020012 | 37 | 311 | 8.0 | 22.0 | 0.00 | 0.02 | 0.02 | 91 | 1002.7 |
| 20260901014504 | 37 | 303 | 9.0 | 19.0 | 0.00 | 0.02 | 0.02 | 91 | 1002.4 |
| 20260901013006 | 37 | 359 | 7.0 | 24.0 | 0.00 | 0.02 | 0.02 | 90 | 1002.2 |
| 20260901011501 | 38 | 329 | 8.0 | 20.0 | 0.00 | 0.02 | 0.02 | 90 | 1002.1 |
| 20260901010059 | 38 | 299 | 7.0 | 19.0 | 0.00 | 0.02 | 0.02 | 89 | 1002.1 |
| 20260901004558 | 38 | 284 | 3.0 | 16.0 | 0.00 | 0.02 | 0.02 | 89 | 1001.8 |
| 20260901003056 | 38 | 280 | 10.0 | 21.0 | 0.00 | 0.02 | 0.02 | 88 | 1001.6 |
| 20260901001559 | 38 | 299 | 9.0 | 17.0 | 0.00 | 0.02 | 0.02 | 87 | 1001.3 |
| 20260901000055 | 38 | 345 | 8.0 | 18.0 | 0.00 | 0.02 | 0.02 | 87 | 1001.2 |
| 20260831234557 | 38 | 317 | 8.0 | 19.0 | 0.00 | 0.02 | 0.02 | 88 | 1001.1 |
| 20260831233052 | 38 | 324 | 8.0 | 19.0 | 0.00 | 0.02 | 0.02 | 88 | 1000.8 |
| 20260831231604 | 38 | 14 | 5.0 | 16.0 | 0.00 | 0.02 | 0.02 | 89 | 1000.6 |
| 20260831230055 | 38 | 272 | 9.0 | 16.0 | 0.00 | 0.02 | 0.02 | 90 | 1000.5 |
| 20260831224619 | 38 | 347 | 6.0 | 17.0 | 0.00 | 0.02 | 0.02 | 89 | 1000.5 |
| 20260831223047 | 38 | 276 | 6.0 | 17.0 | 0.00 | 0.02 | 0.02 | 89 | 1000.5 |
| 20260831221553 | 38 | 318 | 9.0 | 20.0 | 0.00 | 0.02 | 0.02 | 88 | 1000.7 |
| 20260831220050 | 38 | 281 | 5.0 | 17.0 | 0.00 | 0.02 | 0.02 | 88 | 1000.5 |
| 20260831214548 | 38 | 272 | 8.0 | 21.0 | 0.00 | 0.02 | 0.02 | 88 | 1000.6 |
| 20260831213042 | 38 | 305 | 8.0 | 23.0 | 0.00 | 0.02 | 0.02 | 88 | 1000.3 |